EW8163 Weather Reports


Display with metric or nautical units.
time (UTC)temp
F
wind
direction
speed
MPH
gust
MPH
rain 1hr
in
rain 24hr
in
rain mn
in
humidity
%
barometer
mb
20260502122823 38 225 0.0 0.0 0.00 0.00 0.00 96 1017.6
20260502122724 38 225 0.0 0.0 0.00 0.00 0.00 96 1017.6
20260502121725 38 225 0.0 0.0 0.00 0.00 0.00 95 1017.6
20260502121622 38 225 0.0 0.0 0.00 0.00 0.00 95 1017.7
20260502120623 39 225 0.0 0.0 0.00 0.00 0.00 96 1017.7
20260502115623 39 225 0.0 0.0 0.00 0.00 0.00 96 1017.6
20260502113624 39 225 0.0 0.0 0.00 0.00 0.00 96 1017.8
20260502112623 40 225 0.0 0.0 0.00 0.00 0.00 96 1017.8
20260502112524 40 225 0.0 0.0 0.00 0.00 0.00 96 1017.8
20260502111623 40 225 0.0 0.0 0.00 0.00 0.00 96 1017.8
20260502105622 41 225 0.0 0.0 0.00 0.00 0.00 96 1018.0
20260502103623 41 225 0.0 0.0 0.00 0.00 0.00 96 1018.0
20260502102623 42 225 0.0 0.0 0.00 0.00 0.00 96 1018.2
20260502102525 42 225 0.0 0.0 0.00 0.00 0.00 96 1018.2
20260502100623 42 225 0.0 0.0 0.00 0.00 0.00 95 1018.2
20260502090822 42 225 0.0 0.0 0.00 0.00 0.00 95 1018.6
20260502070922 47 225 0.0 0.0 0.00 0.00 0.00 90 1019.2
20260502070823 47 225 0.0 0.0 0.00 0.00 0.00 91 1019.2
20260502065827 47 225 0.0 0.0 0.00 0.00 0.00 91 1019.3
20260502064828 48 225 0.0 0.0 0.00 0.00 0.00 90 1019.2
20260502063927 48 225 0.0 0.0 0.00 0.00 0.00 90 1019.3
20260502063828 48 225 0.0 0.0 0.00 0.00 0.00 90 1019.2
20260502061826 48 225 0.0 0.0 0.00 0.00 0.00 88 1019.2
20260502054828 48 225 0.0 0.0 0.00 0.00 0.00 87 1019.3
20260502053827 48 225 0.0 0.0 0.00 0.00 0.00 88 1019.5
20260502052842 48 225 0.0 0.0 0.00 0.00 0.00 89 1019.5
20260502050926 48 225 0.0 0.0 0.00 0.00 0.00 88 1019.3
20260502045926 48 225 0.0 0.0 0.00 0.00 0.00 88 1019.3
20260502044928 48 225 0.0 0.0 0.00 0.00 0.00 87 1019.2
20260502044827 48 225 0.0 0.0 0.00 0.00 0.00 87 1019.3
20260502043826 48 225 0.0 0.0 0.00 0.00 0.00 86 1019.1
20260502043726 48 225 0.0 0.0 0.00 0.00 0.00 86 1019.1
20260502043628 48 225 0.0 0.0 0.00 0.00 0.00 86 1019.1
20260502042628 49 247 0.0 0.0 0.00 0.00 0.00 86 1019.1
20260502041628 49 247 0.0 0.0 0.00 0.00 0.00 84 1019.0
20260502040726 50 247 0.0 0.0 0.00 0.00 0.00 83 1019.0
20260502035726 50 247 0.0 0.0 0.00 0.00 0.00 83 1018.9
20260502033729 52 247 0.0 0.0 0.00 0.00 0.00 80 1018.7
20260502032727 53 247 0.0 0.0 0.00 0.00 0.00 79 1018.5
20260502031727 53 247 0.0 0.0 0.00 0.00 0.00 78 1018.4
20260502030727 54 247 0.0 0.0 0.00 0.00 0.00 76 1018.3
20260502030628 55 247 0.0 0.0 0.00 0.00 0.00 76 1018.3
20260502025627 56 247 0.0 0.0 0.00 0.00 0.00 74 1018.2
20260502024627 58 247 0.0 0.0 0.00 0.00 0.00 71 1018.2
20260502024528 58 247 0.0 0.0 0.00 0.00 0.00 71 1018.3
20260502023543 59 247 0.0 0.0 0.00 0.00 0.00 67 1018.3
20260502021628 61 247 0.0 0.0 0.00 0.00 0.00 64 1018.2
20260502020628 61 247 0.0 0.0 0.00 0.00 0.00 63 1018.2
20260502015726 62 247 0.0 0.0 0.00 0.00 0.00 62 1018.2
20260502014727 63 247 0.0 0.0 0.00 0.00 0.00 60 1018.1
20260502013727 63 247 0.0 0.0 0.00 0.00 0.00 57 1018.0
20260502012728 65 247 0.0 1.0 0.00 0.00 0.00 51 1018.0
20260502012625 65 247 0.0 0.0 0.00 0.00 0.00 51 1018.0
20260502012527 65 247 0.0 0.0 0.00 0.00 0.00 50 1017.9
20260502011528 67 277 1.0 2.0 0.00 0.00 0.00 49 1018.0
20260502010526 67 249 0.0 1.0 0.00 0.00 0.00 48 1017.9
20260502005625 67 360 0.0 0.0 0.00 0.00 0.00 49 1017.8
20260502004628 66 201 0.0 2.0 0.00 0.00 0.00 49 1017.8
20260502003725 67 163 1.0 2.0 0.00 0.00 0.00 48 1017.9
20260502002726 68 251 2.0 4.0 0.00 0.00 0.00 48 1017.8
20260502001726 66 67 0.0 0.0 0.00 0.00 0.00 51 1018.1
20260502000726 65 176 1.0 4.0 0.00 0.00 0.00 52 1018.0
20260502000627 65 223 0.0 1.0 0.00 0.00 0.00 51 1018.0
20260501235627 67 214 2.0 6.0 0.00 0.00 0.00 49 1018.2
20260501234628 66 45 0.0 4.0 0.00 0.00 0.00 52 1018.1
20260501233725 64 241 0.0 1.0 0.00 0.00 0.00 53 1018.0
20260501233627 64 235 0.0 2.0 0.00 0.00 0.00 53 1018.2
20260501232628 64 246 1.0 2.0 0.00 0.00 0.00 54 1018.2
20260501225626 65 270 0.0 2.0 0.00 0.00 0.00 52 1018.2
20260501224628 67 351 1.0 3.0 0.00 0.00 0.00 50 1018.3
20260501221827 69 222 3.0 7.0 0.00 0.00 0.00 47 1018.5
20260501220925 69 209 1.0 7.0 0.00 0.00 0.00 48 1018.6
20260501215928 68 206 3.0 7.0 0.00 0.00 0.00 46 1018.7
20260501214927 68 211 5.0 8.0 0.00 0.00 0.00 48 1018.7
20260501213826 68 307 5.0 10.0 0.00 0.00 0.00 48 1018.8
20260501212842 68 207 3.0 6.0 0.00 0.00 0.00 46 1018.9
20260501205825 67 290 5.0 9.0 0.00 0.00 0.00 48 1018.9
20260501203826 67 225 0.0 3.0 0.00 0.00 0.00 48 1019.0
20260501202826 66 157 4.0 6.0 0.00 0.00 0.00 49 1019.0
20260501201825 65 180 0.0 0.0 0.00 0.00 0.00 50 1019.0
20260501195828 63 225 0.0 3.0 0.00 0.00 0.00 57 1019.3
20260501194826 63 232 3.0 5.0 0.00 0.00 0.00 54 1019.3
20260501191826 64 247 1.0 2.0 0.00 0.00 0.00 49 1019.5
20260501185928 62 45 0.0 0.0 0.00 0.00 0.00 50 1019.6
20260501184925 63 82 3.0 4.0 0.00 0.00 0.00 45 1019.5
20260501183926 66 142 2.0 7.0 0.00 0.00 0.00 39 1019.6
20260501182926 66 39 1.0 3.0 0.00 0.00 0.00 38 1019.6
20260501181926 67 346 3.0 7.0 0.00 0.00 0.00 39 1019.6
20260501180926 65 112 2.0 4.0 0.00 0.00 0.00 40 1019.5
20260501175929 66 113 3.0 5.0 0.00 0.00 0.00 38 1019.6
20260501174026 66 114 2.0 4.0 0.00 0.00 0.00 37 1019.5
20260501172928 66 90 3.0 5.0 0.00 0.00 0.00 37 1019.5
20260501171926 66 135 0.0 2.0 0.00 0.00 0.00 38 1019.5
20260501171024 66 130 1.0 4.0 0.00 0.00 0.00 37 1019.5
20260501170026 66 42 2.0 5.0 0.00 0.00 0.00 37 1019.5
20260501165027 66 315 0.0 2.0 0.00 0.00 0.00 38 1019.3
20260501164928 66 353 0.0 0.0 0.00 0.00 0.00 37 1019.5
20260501164026 66 338 0.0 2.0 0.00 0.00 0.00 39 1019.5
20260501162028 63 157 0.0 1.0 0.00 0.00 0.00 48 1019.7
20260501161125 61 225 0.0 0.0 0.00 0.00 0.00 64 1019.8
20260501161027 61 225 0.0 0.0 0.00 0.00 0.00 68 1019.6
20260501154125 55 225 0.0 0.0 0.00 0.00 0.00 73 1019.7
20260501153126 53 225 0.0 0.0 0.00 0.00 0.00 77 1019.6
20260501152126 50 225 0.0 0.0 0.00 0.00 0.00 87 1019.6
20260501151126 47 225 0.0 0.0 0.00 0.00 0.00 93 1019.5
20260501150126 44 225 0.0 0.0 0.00 0.00 0.00 97 1019.3
20260501145127 41 225 0.0 0.0 0.00 0.00 0.00 98 1019.0